When you browse on this site, cookies collect data to enhance your experience and personalize the content and advertising you see.
Visit our Privacy Policy to learn more. By continuing to use the site, you agree to this use of cookies and data.
  • In Hungary
  • List of Countries
  • For 7 days
  • Water Temperature
  • Weather Map
  • News
  • Weather Widgets
  • user-avatar
    Login

    Hourly Weather Dubovaya Roscha

    Today, 24 January, Friday

    Time Temperature Precipitation Wind Pressure Humidity
    00:00 -14°C° 0 mm 3 mps 734 mmHg 94%
    01:00 -15°C° 0 mm 3 mps 734 mmHg 95%
    02:00 -15°C° 0 mm 3 mps 735 mmHg 95%
    03:00 -15°C° 0 mm 3 mps 735 mmHg 95%
    04:00 -15°C° 0 mm 3 mps 736 mmHg 95%
    05:00 -15°C° 0 mm 3 mps 736 mmHg 95%
    06:00 -15°C° 0 mm 3 mps 737 mmHg 95%
    07:00 -15°C° 0 mm 3 mps 737 mmHg 95%
    08:00 -15°C° 0 mm 3 mps 738 mmHg 94%
    09:00 -15°C° 0 mm 3 mps 738 mmHg 94%
    10:00 -14°C° 0 mm 3 mps 738 mmHg 93%
    11:00 -13°C° 0 mm 3 mps 738 mmHg 92%
    12:00 -12°C° 0 mm 4 mps 738 mmHg 91%
    13:00 -12°C° 0 mm 4 mps 738 mmHg 91%
    14:00 -14°C° 0 mm 4 mps 738 mmHg 91%
    15:00 -14°C° 0 mm 4 mps 738 mmHg 91%
    16:00 -14°C° 0 mm 4 mps 738 mmHg 91%
    17:00 -15°C° 0 mm 4 mps 738 mmHg 92%
    18:00 -15°C° 0 mm 4 mps 738 mmHg 92%
    19:00 -15°C° 0 mm 5 mps 737 mmHg 92%
    20:00 -15°C° 0 mm 5 mps 737 mmHg 91%
    21:00 -15°C° 0 mm 5 mps 736 mmHg 91%
    22:00 -16°C° 0 mm 6 mps 736 mmHg 91%
    23:00 -15°C° 0 mm 6 mps 735 mmHg 91%

    Tomorrow, 25 January, Saturday

    Time Temperature Precipitation Wind Pressure Humidity
    00:00 -15°C° 0 mm 7 mps 734 mmHg 92%
    01:00 -14°C° 0.3 mm 7 mps 733 mmHg 92%
    02:00 -13°C° 0.3 mm 7 mps 732 mmHg 93%
    03:00 -12°C° 0.3 mm 7 mps 732 mmHg 94%
    04:00 -12°C° 0.8 mm 7 mps 731 mmHg 94%
    05:00 -11°C° 0.8 mm 7 mps 730 mmHg 94%
    06:00 -9°C° 0.8 mm 7 mps 729 mmHg 94%
    07:00 -8°C° 0.4 mm 7 mps 728 mmHg 93%
    08:00 -6°C° 0.4 mm 7 mps 728 mmHg 93%
    09:00 -4°C° 0.4 mm 7 mps 728 mmHg 92%
    10:00 -4°C° 0 mm 7 mps 729 mmHg 90%
    11:00 -4°C° 0 mm 7 mps 729 mmHg 88%
    12:00 -6°C° 0 mm 7 mps 729 mmHg 86%
    13:00 -5°C° 0 mm 6 mps 729 mmHg 86%
    14:00 -6°C° 0 mm 5 mps 729 mmHg 87%
    15:00 -5°C° 0 mm 4 mps 730 mmHg 87%
    16:00 -5°C° 0 mm 4 mps 729 mmHg 89%
    17:00 -5°C° 0 mm 4 mps 729 mmHg 92%
    18:00 -5°C° 0 mm 4 mps 729 mmHg 94%
    19:00 -4°C° 0.2 mm 4 mps 728 mmHg 94%
    20:00 -5°C° 0.2 mm 5 mps 727 mmHg 95%
    21:00 -4°C° 0.2 mm 6 mps 727 mmHg 95%
    22:00 -4°C° 0.3 mm 6 mps 726 mmHg 94%
    23:00 -4°C° 0.3 mm 6 mps 725 mmHg 93%

    Day after tomorrow, 26 January, Sunday

    Time Temperature Precipitation Wind Pressure Humidity
    00:00 -3°C° 0.3 mm 7 mps 724 mmHg 92%
    01:00 -4°C° 0.7 mm 7 mps 723 mmHg 92%
    02:00 -4°C° 0.7 mm 6 mps 722 mmHg 93%
    03:00 -4°C° 0.7 mm 6 mps 722 mmHg 93%
    04:00 -6°C° 0.3 mm 8 mps 722 mmHg 93%
    05:00 -8°C° 0.3 mm 9 mps 722 mmHg 92%
    06:00 -9°C° 0.3 mm 11 mps 723 mmHg 92%
    07:00 -9°C° 0.4 mm 11 mps 723 mmHg 92%
    08:00 -9°C° 0.4 mm 10 mps 724 mmHg 92%
    09:00 -10°C° 0.4 mm 10 mps 725 mmHg 93%
    10:00 -9°C° 0.5 mm 9 mps 726 mmHg 92%
    11:00 -8°C° 0.5 mm 8 mps 727 mmHg 91%
    12:00 -8°C° 0.5 mm 7 mps 728 mmHg 91%
    13:00 -8°C° 0.1 mm 7 mps 729 mmHg 90%
    14:00 -8°C° 0.1 mm 7 mps 731 mmHg 90%
    15:00 -8°C° 0.1 mm 7 mps 732 mmHg 89%
    16:00 -9°C° 0 mm 6 mps 733 mmHg 88%
    17:00 -11°C° 0 mm 6 mps 734 mmHg 87%
    18:00 -12°C° 0 mm 6 mps 735 mmHg 86%
    19:00 -12°C° 0 mm 6 mps 736 mmHg 87%
    20:00 -12°C° 0 mm 6 mps 736 mmHg 89%
    21:00 -12°C° 0 mm 5 mps 737 mmHg 91%
    22:00 -12°C° 0.1 mm 5 mps 737 mmHg 92%
    23:00 -11°C° 0.1 mm 5 mps 737 mmHg 92%

    27 January, Monday

    Time Temperature Precipitation Wind Pressure Humidity
    00:00 -11°C° 0.1 mm 5 mps 738 mmHg 93%
    01:00 -11°C° 0.1 mm 5 mps 738 mmHg 92%
    02:00 -11°C° 0.1 mm 5 mps 738 mmHg 92%
    03:00 -12°C° 0.1 mm 5 mps 739 mmHg 92%
    04:00 -10°C° 0.1 mm 4 mps 739 mmHg 92%
    05:00 -10°C° 0.1 mm 4 mps 739 mmHg 92%
    06:00 -10°C° 0.1 mm 4 mps 739 mmHg 93%
    07:00 -10°C° 0 mm 4 mps 739 mmHg 93%
    08:00 -9°C° 0 mm 3 mps 740 mmHg 94%
    09:00 -9°C° 0 mm 3 mps 740 mmHg 94%
    10:00 -8°C° 0 mm 3 mps 740 mmHg 93%
    11:00 -8°C° 0 mm 3 mps 740 mmHg 93%
    12:00 -8°C° 0 mm 3 mps 741 mmHg 92%
    13:00 -7°C° 0 mm 2 mps 741 mmHg 92%
    14:00 -7°C° 0 mm 1 mps 741 mmHg 93%
    15:00 -7°C° 0 mm 0 mps 741 mmHg 94%
    16:00 -8°C° 0 mm 1 mps 741 mmHg 93%
    17:00 -9°C° 0 mm 1 mps 742 mmHg 93%
    18:00 -10°C° 0 mm 2 mps 742 mmHg 93%
    19:00 -12°C° 0 mm 2 mps 742 mmHg 93%
    20:00 -12°C° 0 mm 2 mps 742 mmHg 94%
    21:00 -12°C° 0 mm 2 mps 742 mmHg 94%
    22:00 -12°C° 0 mm 2 mps 742 mmHg 95%
    23:00 -12°C° 0 mm 2 mps 742 mmHg 95%

    28 January, Tuesday

    Time Temperature Precipitation Wind Pressure Humidity
    00:00 -12°C° 0 mm 2 mps 742 mmHg 96%
    01:00 -12°C° 0.1 mm 2 mps 742 mmHg 96%
    02:00 -12°C° 0.1 mm 2 mps 742 mmHg 96%
    03:00 -10°C° 0.1 mm 2 mps 742 mmHg 96%
    04:00 -10°C° 0.2 mm 2 mps 742 mmHg 96%
    05:00 -9°C° 0.2 mm 2 mps 742 mmHg 96%
    06:00 -9°C° 0.2 mm 2 mps 742 mmHg 96%
    07:00 -9°C° 0.2 mm 2 mps 742 mmHg 96%
    08:00 -8°C° 0.2 mm 2 mps 743 mmHg 96%
    09:00 -8°C° 0.2 mm 2 mps 743 mmHg 96%
    10:00 -7°C° 0.4 mm 2 mps 743 mmHg 96%
    11:00 -6°C° 0.4 mm 2 mps 743 mmHg 96%
    12:00 -3°C° 0.4 mm 1 mps 743 mmHg 97%
    13:00 -3°C° 0.4 mm 1 mps 743 mmHg 97%
    14:00 -2°C° 0.4 mm 1 mps 743 mmHg 97%
    15:00 -2°C° 0.4 mm 1 mps 743 mmHg 97%
    16:00 -2°C° 0.3 mm 1 mps 743 mmHg 97%
    17:00 -3°C° 0.3 mm 1 mps 744 mmHg 97%
    18:00 -5°C° 0.3 mm 2 mps 744 mmHg 97%
    19:00 -6°C° 0.1 mm 2 mps 744 mmHg 97%
    20:00 -7°C° 0.1 mm 2 mps 744 mmHg 96%
    21:00 -7°C° 0.1 mm 2 mps 745 mmHg 96%
    22:00 -8°C° 0 mm 2 mps 745 mmHg 96%
    23:00 -8°C° 0 mm 2 mps 745 mmHg 96%

    29 January, Wednesday

    Time Temperature Precipitation Wind Pressure Humidity
    00:00 -9°C° 0 mm 2 mps 745 mmHg 96%
    01:00 -9°C° 0.1 mm 2 mps 746 mmHg 96%
    02:00 -9°C° 0.1 mm 2 mps 746 mmHg 96%
    03:00 -9°C° 0.1 mm 2 mps 746 mmHg 96%
    04:00 -9°C° 0.1 mm 2 mps 746 mmHg 96%
    05:00 -9°C° 0.1 mm 2 mps 747 mmHg 96%
    06:00 -9°C° 0.1 mm 2 mps 747 mmHg 96%
    07:00 -9°C° 0.1 mm 2 mps 747 mmHg 96%
    08:00 -9°C° 0.1 mm 2 mps 747 mmHg 95%
    09:00 -9°C° 0.1 mm 2 mps 748 mmHg 95%
    10:00 -8°C° 0 mm 2 mps 748 mmHg 96%
    11:00 -8°C° 0 mm 2 mps 748 mmHg 96%
    12:00 -7°C° 0 mm 2 mps 748 mmHg 96%
    13:00 -7°C° 0 mm 2 mps 748 mmHg 96%
    14:00 -6°C° 0 mm 2 mps 748 mmHg 96%
    15:00 -5°C° 0 mm 2 mps 748 mmHg 96%
    16:00 -7°C° 0 mm 3 mps 748 mmHg 96%
    17:00 -7°C° 0 mm 3 mps 749 mmHg 96%
    18:00 -7°C° 0 mm 3 mps 749 mmHg 96%
    19:00 -7°C° 0 mm 3 mps 749 mmHg 96%
    20:00 -6°C° 0 mm 3 mps 749 mmHg 96%
    21:00 -6°C° 0 mm 3 mps 749 mmHg 96%
    22:00 -6°C° 0 mm 3 mps 749 mmHg 95%
    23:00 -8°C° 0 mm 4 mps 749 mmHg 95%
    Show more